This is the latest recevied weather packets stored in our database for station/object EA4BCR. If no packets are shown the sender has not sent any weather packets the latest 10 day(s).
| Time | Temp. | Humidity | Pressure | Rain* | Wind** | Luminosity | Snow |
|---|---|---|---|---|---|---|---|
| 1787775614 | 26.67° C | 33% | 1008.7 hPa | - | - | - | - |
| 1787775014 | 26.11° C | 33% | 1008.7 hPa | - | - | - | - |
| 1787774414 | 26.11° C | 36% | 1008.8 hPa | - | - | - | - |
| 1787773814 | 26.11° C | 30% | 1008.7 hPa | - | - | - | - |
| 1787773214 | 26.67° C | 29% | 1008.4 hPa | - | - | - | - |
| 1787772614 | 26.67° C | 24% | 1008.2 hPa | - | - | - | - |
| 1787772014 | 27.22° C | 25% | 1008.1 hPa | - | - | - | - |
| 1787771414 | 26.67° C | 26% | 1008.1 hPa | - | - | - | - |
| 1787770814 | 26.67° C | 24% | 1008.1 hPa | - | - | - | - |
| 1787770214 | 27.22° C | 24% | 1007.9 hPa | - | - | - | - |
| 1787769614 | 27.22° C | 22% | 1007.7 hPa | - | - | - | - |
| 1787769014 | 27.22° C | 22% | 1007.7 hPa | - | - | - | - |
| 1787768414 | 27.78° C | 22% | 1007.4 hPa | - | - | - | - |
| 1787767814 | 27.78° C | 20% | 1007.4 hPa | - | - | - | - |
| 1787767216 | 27.78° C | 20% | 1007.1 hPa | - | - | - | - |
| 1787766614 | 28.33° C | 19% | 1007.1 hPa | - | - | - | - |
| 1787766014 | 27.78° C | 20% | 1007.1 hPa | - | - | - | - |
| 1787765414 | 28.89° C | 20% | 1006.9 hPa | - | - | - | - |
| 1787764814 | 28.89° C | 20% | 1006.7 hPa | - | - | - | - |
| 1787764214 | 28.89° C | 20% | 1006.7 hPa | - | - | - | - |
| 1787763614 | 29.44° C | 18% | 1006.5 hPa | - | - | - | - |
| 1787763014 | 29.44° C | 19% | 1006.5 hPa | - | - | - | - |
| 1787762414 | 29.44° C | 20% | 1006.2 hPa | - | - | - | - |
| 1787761814 | 30° C | 21% | 1006 hPa | - | - | - | - |
| 1787761214 | 30° C | 21% | 1006.1 hPa | - | - | - | - |
* Rain since midnight (hover to see other rain measurements)
** Current wind speed in m/s (hover to see current wind gust speed)